(401708) = 2001 TR185 = 2008 EY60 = 2013 HA69

Discovered at Socorro on 2001-10-14 by LINEAR.

Orbit

Orbit type: Main Belt

Note: WebGL enabled browser required.

epoch2022-01-21.0
epoch JD2459600.5
perihelion date2020-09-16.88897
perihelion JD2459109.38897
argument of perihelion (°)64.79475
ascending node (°)349.32684
inclination (°)4.16768
eccentricity0.1017049
perihelion distance (AU)2.5060200
Tisserand w.r.t. Jupiter3.3
ΔV w.r.t. Earth (km/sec)10.0
semimajor axis (AU)2.7897515
mean anomaly (°)103.88079
mean daily motion (°/day)0.21152200
aphelion distance (AU)3.073
period (years)4.66
P-vector [x]0.58562403
P-vector [y]0.71508786
P-vector [z]0.38169863
Q-vector [x]-0.81047105
Q-vector [y]0.52437964
Q-vector [z]0.26107981
absolute magnitude17.28
phase slope0.15
uncertainty0
referenceMPO 699069
observations used127
oppositions13
arc length (days)7449
first opposition used2001
last opposition used2022
residual rms (arc-secs)0.78
perturbers coarse indicatorM-v
perturbers precise indicator003Ek
first observation date used2001-10-14.0
last observation date used2022-03-07.0
computer namePan
JD of orbit computation2456846.821405
perihelion JD uncertainty (days)2.2554E-04
argument of perihelion uncertainty (°)8.8164E-05
ascending node uncertainty (°)7.9143E-05
inclination uncertainty (°)6.6586E-06
eccentricity uncertainty 6.4164E-08
perihelion distance uncertainty (AU)1.8673E-07
Minimum Orbit Intersection Distances (in AU)
for orbit epoch: 2458200.5, reference: MPO402609
Mercury2.19879
Venus1.79449
Earth1.52575
Mars0.992234
Jupiter2.24612
Saturn6.46344
Uranus15.2425
Neptune27.1892

Observations

136 total observations over interval: 2001 10 14.26624 – 2022 03 07.347417
These data are available for download (format description).

